User: anonymous   Login
Location: Cointrin
(46.2167°N, 6.1167°E)
Time: 05:36:42
(UTC+00:00)
Language:

SKYMED 2 - Orbit

View from above orbital plane
View from above orbital plane
View from above satellite
View from above satellite

Ground track
Ground track

The orbit data is extracted from the following two-line orbital elements,

1 32376U 07059A   24114.41865141  .00000127  00000-0  22533-4 0  9993
2 32376  97.8865 298.3660 0001488  81.0041 279.1341 14.82162639885757
Epoch (UTC): 23 April 2024 10:02:51
Eccentricity: 0.0001488
inclination: 97.8865°
perigee height: 621 km
apogee height: 623 km
right ascension of ascending node: 298.3660°
argument of perigee: 81.0041°
revolutions per day: 14.82162639
mean anomaly at epoch: 279.1341°
orbit number at epoch: 88575

The dashed part of the orbit path shows where the satellite is in the earth's shadow,  

DLR